Content
SEND FEEDBACK

Daily
Averages
Monthly
Summary
United States of America

MANGILAO, GUAM


Home > North America > United States > Guam
Elevation: 18 meters     Latitude: 13 27N     Longitude: 144 49E

WEATHER
 
SELECT A DAY
Number of Records: 341,964;   Date Range: 1/1/95 - 7/26/14
 
SHARE

PRINT THIS DATA

[ ← Previous Day ]
WEATHER ALMANAC - 29 APRIL, 2013
[ Next Day → ]
[ °F ]   °C
Weather ElementAverageHighLow
Temperature26.5 °C29.2 °C (11:55 am)24 °C (5:18 am)
Dewpoint23.6 °C24.1 °C (1:55 am)22.8 °C (9:55 pm)
Humidity84.5 %94 % (5:12 am)73 % (11:55 am)
Barometer1011.2 hPa1013.9 hPa (10:55 pm)1009.5 hPa (3:55 pm)
Wind Speed19.2 km/h31.5 km/h (5:00 am)
Wind Gust38.9 km/h (3:46 am)
Weather ElementAverage
Visibility14.3 km
Wind DirectionENE (77.5 °)

Weather ElementTotal
Precipitation3.56 mm
Cooling Degree Days8.3 (Base 18.3)
Growing Degree Days16.6 (Base 10)
Averaged from 72 records on 29 April, 2013
WEATHER CONDITIONS BREAKOUT
WIND DIRECTION BREAKOUT
WEATHER BY HOUR - 29 APRIL, 2013
[ °F ]   °C
Local TimeTemperatureDewpointHumidityBarometerVisibilityWind DirectionWind SpeedGust SpeedPrecipitationEventsConditions
1:50 AM26 °C24 °C89 %1011.5 hPa16.1 kmNE (50°)20.4 km/hMostly Cloudy
1:55 AM26.1 °C24.1 °C89 %1011.5 hPa16.1 kmENE (60°)20.4 km/hMostly Cloudy
1:58 AM26 °C24 °C89 %1011.5 hPa16.1 kmENE (60°)22.2 km/hScattered Clouds
2:55 AM25.9 °C23.5 °C87 %1011.2 hPa16.1 kmENE (60°)22.2 km/hScattered Clouds
3:02 AM26 °C24 °C89 %1010.8 hPa16.1 kmENE (60°)20.4 km/hMostly Cloudy
3:04 AM26 °C24 °C89 %1010.8 hPa16.1 kmENE (70°)18.5 km/hScattered Clouds
3:10 AM26 °C24 °C89 %1010.8 hPa16.1 kmENE (60°)18.5 km/hMostly Cloudy
3:15 AM26 °C24 °C89 %1010.8 hPa16.1 kmENE (60°)18.5 km/hScattered Clouds
3:35 AM26 °C24 °C89 %1010.8 hPa16.1 kmENE (70°)20.4 km/hMostly Cloudy
3:36 AM26 °C24 °C89 %1010.8 hPa16.1 kmEast (80°)18.5 km/hMostly Cloudy
3:46 AM26 °C24 °C89 %1010.8 hPa16.1 kmENE (70°)25.9 km/h38.9 km/hLight Drizzle
3:53 AM25 °C23 °C89 %1010.8 hPa16.1 kmENE (70°)22.2 km/h38.9 km/hLight Drizzle
3:55 AM25.2 °C22.9 °C87 %1011.2 hPa16.1 kmENE (60°)22.2 km/h0 mmMostly Cloudy
3:56 AM25 °C23 °C89 %1010.8 hPa16.1 kmENE (60°)22.2 km/hMostly Cloudy
4:55 AM25.7 °C24.1 °C91 %1011.2 hPa16.1 kmEast (80°)18.5 km/hScattered Clouds
4:57 AM26 °C24 °C89 %1011.5 hPa16.1 kmEast (80°)25.9 km/hMostly Cloudy
5:00 AM26 °C24 °C89 %1011.5 hPa12.9 kmEast (80°)31.5 km/h38.9 km/hRainLight Rain
5:02 AM25 °C23 °C89 %1011.5 hPa8 kmENE (70°)27.8 km/h38.9 km/hRainLight Rain
5:05 AM25 °C23 °C89 %1011.5 hPa6.4 kmEast (90°)18.5 km/h38.9 km/hRainRain
5:06 AM25 °C23 °C89 %1011.5 hPa6.4 kmEast (90°)16.7 km/h38.9 km/hRainLight Rain
5:09 AM25 °C23 °C89 %1011.5 hPa6.4 kmEast (90°)16.7 km/h38.9 km/hRainLight Rain
5:12 AM25 °C24 °C94 %1011.5 hPa6.4 kmEast (90°)22.2 km/h31.5 km/hRainLight Rain
5:14 AM25 °C24 °C94 %1011.5 hPa4.8 kmEast (90°)24.1 km/h31.5 km/hRainLight Rain
5:15 AM25 °C24 °C94 %1011.5 hPa4 kmEast (90°)24.1 km/h31.5 km/hRainHeavy Rain
5:18 AM24 °C23 °C94 %1011.5 hPa3.2 kmENE (70°)20.4 km/h31.5 km/hRainLight Rain
5:22 AM24 °C23 °C94 %1011.5 hPa4 kmENE (70°)18.5 km/hRainLight Rain
5:24 AM25 °C23 °C89 %1011.5 hPa4.8 kmENE (60°)20.4 km/hRainLight Rain
5:25 AM25 °C23 °C89 %1011.5 hPa6.4 kmENE (60°)18.5 km/hRainLight Rain
5:27 AM25 °C23 °C89 %1011.5 hPa9.7 kmENE (60°)18.5 km/hRainLight Rain
5:36 AM25 °C24 °C94 %1011.5 hPa16.1 kmENE (70°)13 km/hScattered Clouds
5:39 AM25 °C24 °C94 %1011.5 hPa16.1 kmENE (70°)13 km/hMostly Cloudy
5:43 AM25 °C24 °C94 %1011.5 hPa16.1 kmEast (80°)20.4 km/hLight Drizzle
5:46 AM25 °C23 °C89 %1011.5 hPa16.1 kmENE (70°)22.2 km/hLight Drizzle
5:52 AM25 °C23 °C89 %1011.5 hPa16.1 kmENE (60°)18.5 km/hMostly Cloudy
5:55 AM24.6 °C23.2 °C92 %1011.5 hPa16.1 kmENE (70°)16.7 km/h3.56 mmMostly Cloudy
6:55 AM25.6 °C23.3 °C87 %1011.5 hPa16.1 kmEast (90°)18.5 km/hClear
7:55 AM26.4 °C23 °C81 %1012.2 hPa16.1 kmEast (90°)18.5 km/hClear
8:54 AM27 °C23 °C79 %1012.2 hPa16.1 kmEast (90°)22.2 km/hMostly Cloudy
8:55 AM27.2 °C23.5 °C80 %1012.5 hPa16.1 kmEast (90°)22.2 km/hMostly Cloudy
8:58 AM27 °C23 °C79 %1012.2 hPa16.1 kmEast (100°)20.4 km/hScattered Clouds
9:55 AM27.8 °C23.7 °C78 %1012.9 hPa16.1 kmEast (100°)22.2 km/hScattered Clouds
10:55 AM28.2 °C23.6 °C76 %1012.5 hPa16.1 kmEast (100°)25.9 km/hPartly Cloudy
11:55 AM29.2 °C23.9 °C73 %1011.9 hPa16.1 kmEast (100°)18.5 km/hMostly Cloudy
12:55 PM29.1 °C24.1 °C74 %1010.8 hPa16.1 kmEast (80°)22.2 km/h27.8 km/hMostly Cloudy
1:55 PM28.9 °C23.9 °C74 %1009.8 hPa16.1 kmEast (90°)20.4 km/hScattered Clouds
2:17 PM28 °C24 °C79 %1010.2 hPa16.1 kmEast (80°)20.4 km/hMostly Cloudy
2:20 PM28 °C24 °C79 %1009.8 hPa16.1 kmEast (90°)18.5 km/hMostly Cloudy
2:23 PM28 °C24 °C79 %1010.2 hPa16.1 kmEast (90°)20.4 km/hScattered Clouds
2:35 PM29 °C24 °C74 %1009.8 hPa16.1 kmEast (90°)18.5 km/hMostly Cloudy
2:40 PM29 °C24 °C74 %1009.8 hPa16.1 kmEast (90°)18.5 km/hMostly Cloudy
2:50 PM29 °C24 °C74 %1009.8 hPa16.1 kmEast (80°)22.2 km/hScattered Clouds
2:51 PM29 °C24 °C74 %1009.8 hPa16.1 kmEast (80°)24.1 km/hMostly Cloudy
2:55 PM28.7 °C23.8 °C75 %1009.8 hPa16.1 kmEast (100°)24.1 km/hMostly Cloudy
3:04 PM29 °C24 °C74 %1009.8 hPa16.1 kmEast (90°)20.4 km/hScattered Clouds
3:26 PM29 °C24 °C74 %1009.8 hPa16.1 kmEast (90°)18.5 km/hMostly Cloudy
3:55 PM28.7 °C23.9 °C75 %1009.5 hPa16.1 kmEast (90°)14.8 km/hMostly Cloudy
4:02 PM28 °C24 °C79 %1009.5 hPa16.1 kmEast (90°)14.8 km/hScattered Clouds
4:12 PM29 °C24 °C74 %1009.5 hPa16.1 kmENE (70°)16.7 km/hMostly Cloudy
4:15 PM29 °C24 °C74 %1009.5 hPa16.1 kmEast (90°)18.5 km/hScattered Clouds
4:55 PM28.2 °C23.7 °C76 %1009.8 hPa16.1 kmENE (70°)16.7 km/hPartly Cloudy
5:55 PM27.3 °C23 °C77 %1010.5 hPa16.1 kmEast (80°)14.8 km/hScattered Clouds
6:55 PM26.4 °C23.3 °C83 %1011.2 hPa16.1 kmEast (80°)18.5 km/hPartly Cloudy
7:55 PM26.3 °C23.4 °C84 %1011.9 hPa16.1 kmEast (80°)13 km/hScattered Clouds
8:43 PM26 °C23 °C83 %1012.5 hPa16.1 kmENE (70°)13 km/hMostly Cloudy
8:48 PM26 °C24 °C89 %1012.5 hPa16.1 kmENE (70°)13 km/hMostly Cloudy
8:54 PM26 °C24 °C89 %1012.5 hPa16.1 kmENE (70°)11.1 km/hMostly Cloudy
8:55 PM26.4 °C23.6 °C84 %1012.5 hPa16.1 kmENE (70°)11.1 km/hMostly Cloudy
9:02 PM26 °C23 °C83 %1012.9 hPa16.1 kmENE (70°)13 km/hMostly Cloudy
9:04 PM26 °C23 °C83 %1012.9 hPa16.1 kmENE (70°)16.7 km/hScattered Clouds
9:55 PM25.8 °C22.8 °C83 %1013.5 hPa16.1 kmENE (70°)14.8 km/hPartly Cloudy
10:55 PM25.9 °C23.2 °C85 %1013.9 hPa16.1 kmENE (70°)14.8 km/hScattered Clouds
11:55 PM25.7 °C23.6 °C88 %1013.2 hPa16.1 kmEast (80°)11.1 km/hPartly Cloudy
Hourly data recorded from PGUA, located 0 kilometers away from Mangilao, Guam







STORIES FROM OUR PARTNERS